Time,TemperatureF,DewpointF,PressureIn,WindDirection,WindDirectionDegrees,WindSpeedMPH,WindSpeedGustMPH,Humidity,HourlyPrecipIn,Conditions,Clouds,dailyrainin,SoftwareType,DateUTC
2013-04-25 00:03:00,55.0,54.0,29.91,SSW,200,7.0,-999.0,93,-99.99,,,-99.99,,2013-04-25 04:03:00,
2013-04-25 00:12:00,55.0,54.0,29.91,SSW,200,6.0,-999.0,93,-99.99,,,-99.99,,2013-04-25 04:12:00,
2013-04-25 00:23:00,55.0,55.0,29.92,SSW,210,6.0,-999.0,100,-99.99,,,-99.99,,2013-04-25 04:23:00,
2013-04-25 00:32:00,55.0,55.0,29.92,SSW,200,6.0,-999.0,100,-99.99,,,-99.99,,2013-04-25 04:32:00,
2013-04-25 00:43:00,55.0,55.0,29.92,SSW,200,5.0,-999.0,100,-99.99,,,-99.99,,2013-04-25 04:43:00,
2013-04-25 00:52:00,55.0,55.0,29.93,SSW,210,6.0,-999.0,100,-99.99,,,-99.99,,2013-04-25 04:52:00,
2013-04-25 01:03:00,55.0,55.0,29.93,SSW,210,6.0,-999.0,100,-99.99,,,-99.99,,2013-04-25 05:03:00,
2013-04-25 01:12:00,55.0,55.0,29.93,SSW,210,5.0,-999.0,100,-99.99,,,-99.99,,2013-04-25 05:12:00,
2013-04-25 01:21:00,55.0,55.0,29.94,SW,230,3.0,-999.0,100,-99.99,,,-99.99,,2013-04-25 05:21:00,
2013-04-25 01:32:00,55.0,55.0,29.94,WSW,240,3.0,-999.0,100,-99.99,,,-99.99,,2013-04-25 05:32:00,
2013-04-25 01:42:00,55.0,55.0,29.94,WSW,240,5.0,-999.0,100,-99.99,,,-99.99,,2013-04-25 05:42:00,
2013-04-25 01:51:00,57.0,55.0,29.95,West,260,8.0,-999.0,93,-99.99,,,-99.99,,2013-04-25 05:51:00,
2013-04-25 02:02:00,57.0,55.0,29.95,West,260,8.0,-999.0,93,-99.99,,,-99.99,,2013-04-25 06:02:00,
2013-04-25 02:11:00,57.0,55.0,29.97,West,280,6.0,-999.0,93,-99.99,,,-99.99,,2013-04-25 06:11:00,
2013-04-25 02:22:00,59.0,57.0,29.97,WNW,290,10.0,-999.0,93,-99.99,,,-99.99,,2013-04-25 06:22:00,
2013-04-25 02:32:00,59.0,55.0,29.97,NNW,330,7.0,-999.0,87,-99.99,,,-99.99,,2013-04-25 06:32:00,
2013-04-25 02:42:00,59.0,55.0,29.97,North,0,9.0,16.0,87,-99.99,,,-99.99,,2013-04-25 06:42:00,
2013-04-25 02:52:00,59.0,48.0,29.99,NNW,330,23.0,29.0,67,-99.99,,,-99.99,,2013-04-25 06:52:00,
2013-04-25 03:02:00,59.0,48.0,29.99,NNW,330,23.0,29.0,67,-99.99,,,-99.99,,2013-04-25 07:02:00,
2013-04-25 03:12:00,57.0,41.0,30.00,NNW,340,16.0,29.0,54,-99.99,,,-99.99,,2013-04-25 07:12:00,
2013-04-25 03:22:00,57.0,43.0,30.02,NNW,330,16.0,23.0,58,-99.99,,,-99.99,,2013-04-25 07:22:00,
2013-04-25 03:32:00,57.0,39.0,30.02,NW,310,17.0,27.0,50,-99.99,,,-99.99,,2013-04-25 07:32:00,
2013-04-25 03:42:00,55.0,39.0,30.02,NNW,330,16.0,27.0,54,-99.99,,,-99.99,,2013-04-25 07:42:00,
2013-04-25 03:52:00,55.0,37.0,30.03,NNW,330,10.0,23.0,50,-99.99,,,-99.99,,2013-04-25 07:52:00,
2013-04-25 04:02:00,55.0,37.0,30.03,NNW,330,10.0,23.0,50,-99.99,,,-99.99,,2013-04-25 08:02:00,
2013-04-25 04:11:00,54.0,37.0,30.04,NNW,340,20.0,25.0,54,-99.99,,,-99.99,,2013-04-25 08:11:00,
2013-04-25 04:21:00,54.0,36.0,30.06,NNW,330,14.0,29.0,50,-99.99,,,-99.99,,2013-04-25 08:21:00,
2013-04-25 04:32:00,52.0,36.0,30.06,NNW,330,17.0,22.0,53,-99.99,,,-99.99,,2013-04-25 08:32:00,
2013-04-25 04:42:00,52.0,34.0,30.07,NNW,340,10.0,22.0,50,-99.99,,,-99.99,,2013-04-25 08:42:00,
2013-04-25 04:51:00,50.0,34.0,30.08,NNW,330,14.0,22.0,53,-99.99,,,-99.99,,2013-04-25 08:51:00,
2013-04-25 05:01:00,50.0,34.0,30.08,NNW,330,14.0,22.0,53,-99.99,,,-99.99,,2013-04-25 09:01:00,
2013-04-25 05:11:00,50.0,34.0,30.08,NW,320,9.0,22.0,53,-99.99,,,-99.99,,2013-04-25 09:11:00,
2013-04-25 05:21:00,50.0,36.0,30.10,NNW,330,10.0,-999.0,57,-99.99,,,-99.99,,2013-04-25 09:21:00,
2013-04-25 05:33:00,48.0,36.0,30.11,NNW,330,12.0,-999.0,61,-99.99,,,-99.99,,2013-04-25 09:33:00,
2013-04-25 05:42:00,48.0,37.0,30.12,NNW,330,12.0,20.0,66,-99.99,,,-99.99,,2013-04-25 09:42:00,
2013-04-25 05:52:00,48.0,37.0,30.11,NNW,340,13.0,23.0,66,-99.99,,,-99.99,,2013-04-25 09:52:00,
2013-04-25 06:02:00,48.0,37.0,30.11,NNW,340,13.0,23.0,66,-99.99,,,-99.99,,2013-04-25 10:02:00,
2013-04-25 06:12:00,46.0,37.0,30.13,NNW,340,14.0,18.0,70,-99.99,,,-99.99,,2013-04-25 10:12:00,
2013-04-25 06:22:00,46.0,37.0,30.13,NNW,340,12.0,-999.0,70,-99.99,,,-99.99,,2013-04-25 10:22:00,
2013-04-25 06:32:00,45.0,37.0,30.16,NW,310,10.0,20.0,75,-99.99,,,-99.99,,2013-04-25 10:32:00,
2013-04-25 06:42:00,46.0,37.0,30.16,NW,320,10.0,20.0,70,-99.99,,,-99.99,,2013-04-25 10:42:00,
2013-04-25 06:52:00,45.0,37.0,30.18,NW,320,6.0,-999.0,75,-99.99,,,-99.99,,2013-04-25 10:52:00,
2013-04-25 07:02:00,45.0,37.0,30.18,NW,320,6.0,-999.0,75,-99.99,,,-99.99,,2013-04-25 11:02:00,
2013-04-25 07:12:00,45.0,37.0,30.18,NNW,340,13.0,17.0,75,-99.99,,,-99.99,,2013-04-25 11:12:00,
2013-04-25 07:22:00,45.0,36.0,30.19,NNW,340,12.0,18.0,70,-99.99,,,-99.99,,2013-04-25 11:22:00,
2013-04-25 07:32:00,45.0,34.0,30.19,NNW,330,13.0,21.0,65,-99.99,,,-99.99,,2013-04-25 11:32:00,
2013-04-25 07:42:00,45.0,34.0,30.19,NNW,340,18.0,21.0,65,-99.99,,,-99.99,,2013-04-25 11:42:00,
2013-04-25 07:51:00,46.0,34.0,30.20,NW,320,13.0,20.0,61,-99.99,,,-99.99,,2013-04-25 11:51:00,
2013-04-25 08:01:00,46.0,34.0,30.20,NW,320,13.0,20.0,61,-99.99,,,-99.99,,2013-04-25 12:01:00,
2013-04-25 08:12:00,46.0,32.0,30.21,North,0,12.0,20.0,57,-99.99,,,-99.99,,2013-04-25 12:12:00,
2013-04-25 08:21:00,46.0,34.0,30.22,North,0,12.0,23.0,61,-99.99,,,-99.99,,2013-04-25 12:21:00,
2013-04-25 08:32:00,46.0,32.0,30.21,North,0,15.0,23.0,57,-99.99,,,-99.99,,2013-04-25 12:32:00,
2013-04-25 08:42:00,46.0,32.0,30.21,North,10,9.0,23.0,57,-99.99,,,-99.99,,2013-04-25 12:42:00,
2013-04-25 08:51:00,48.0,32.0,30.21,North,360,21.0,25.0,53,-99.99,,,-99.99,,2013-04-25 12:51:00,
2013-04-25 09:02:00,48.0,32.0,30.21,North,360,21.0,25.0,53,-99.99,,,-99.99,,2013-04-25 13:02:00,
2013-04-25 09:11:00,48.0,32.0,30.22,NNW,340,9.0,24.0,53,-99.99,,,-99.99,,2013-04-25 13:11:00,
2013-04-25 09:21:00,50.0,32.0,30.22,North,350,13.0,24.0,49,-99.99,,,-99.99,,2013-04-25 13:21:00,
2013-04-25 09:32:00,50.0,32.0,30.22,NNW,340,10.0,20.0,49,-99.99,,,-99.99,,2013-04-25 13:32:00,
2013-04-25 09:42:00,50.0,32.0,30.22,NW,320,16.0,21.0,49,-99.99,,,-99.99,,2013-04-25 13:42:00,
2013-04-25 09:52:00,52.0,32.0,30.22,North,360,14.0,21.0,46,-99.99,,,-99.99,,2013-04-25 13:52:00,
2013-04-25 10:02:00,52.0,32.0,30.22,North,360,14.0,21.0,46,-99.99,,,-99.99,,2013-04-25 14:02:00,
2013-04-25 10:11:00,52.0,32.0,30.23,North,350,17.0,17.0,46,-99.99,,,-99.99,,2013-04-25 14:11:00,
2013-04-25 10:21:00,54.0,30.0,30.23,North,10,7.0,-999.0,40,-99.99,,,-99.99,,2013-04-25 14:21:00,
2013-04-25 10:32:00,54.0,32.0,30.22,North,0,10.0,-999.0,43,-99.99,,,-99.99,,2013-04-25 14:32:00,
2013-04-25 10:42:00,54.0,32.0,30.23,North,360,5.0,-999.0,43,-99.99,,,-99.99,,2013-04-25 14:42:00,
2013-04-25 10:51:00,55.0,32.0,30.23,NNW,340,10.0,-999.0,40,-99.99,,,-99.99,,2013-04-25 14:51:00,
2013-04-25 11:02:00,55.0,32.0,30.23,NNW,340,10.0,-999.0,40,-99.99,,,-99.99,,2013-04-25 15:02:00,
2013-04-25 11:11:00,55.0,32.0,30.23,NNW,340,9.0,20.0,40,-99.99,,,-99.99,,2013-04-25 15:11:00,
2013-04-25 11:21:00,57.0,32.0,30.23,NNW,340,10.0,18.0,38,-99.99,,,-99.99,,2013-04-25 15:21:00,
2013-04-25 11:33:00,57.0,32.0,30.23,North,350,9.0,-999.0,38,-99.99,,,-99.99,,2013-04-25 15:33:00,
2013-04-25 11:42:00,57.0,32.0,30.23,NNW,340,8.0,-999.0,38,-99.99,,,-99.99,,2013-04-25 15:42:00,
2013-04-25 11:53:00,57.0,32.0,30.23,NW,310,9.0,-999.0,38,-99.99,,,-99.99,,2013-04-25 15:53:00,
2013-04-25 12:02:00,57.0,32.0,30.23,NW,310,9.0,-999.0,38,-99.99,,,-99.99,,2013-04-25 16:02:00,
2013-04-25 12:13:00,59.0,28.0,30.23,NNE,20,8.0,-999.0,30,-99.99,,,-99.99,,2013-04-25 16:13:00,
2013-04-25 12:24:00,61.0,28.0,30.23,North,350,8.0,-999.0,29,-99.99,,,-99.99,,2013-04-25 16:24:00,
2013-04-25 12:32:00,59.0,28.0,30.23,North,350,10.0,-999.0,30,-99.99,,,-99.99,,2013-04-25 16:32:00,
2013-04-25 12:43:00,59.0,28.0,30.23,North,350,12.0,-999.0,30,-99.99,,,-99.99,,2013-04-25 16:43:00,
2013-04-25 12:52:00,59.0,28.0,30.22,NE,40,9.0,-999.0,30,-99.99,,,-99.99,,2013-04-25 16:52:00,
2013-04-25 13:02:00,59.0,28.0,30.22,NE,40,9.0,-999.0,30,-99.99,,,-99.99,,2013-04-25 17:02:00,
2013-04-25 13:11:00,61.0,28.0,30.22,NNE,30,10.0,-999.0,29,-99.99,,,-99.99,,2013-04-25 17:11:00,
2013-04-25 13:22:00,63.0,28.0,30.21,NNW,330,8.0,-999.0,27,-99.99,,,-99.99,,2013-04-25 17:22:00,
2013-04-25 13:32:00,63.0,28.0,30.21,NNW,330,7.0,-999.0,27,-99.99,,,-99.99,,2013-04-25 17:32:00,
2013-04-25 13:42:00,63.0,30.0,30.21,NE,40,7.0,-999.0,29,-99.99,,,-99.99,,2013-04-25 17:42:00,
2013-04-25 13:53:00,63.0,28.0,30.22,NNW,330,7.0,-999.0,27,-99.99,,,-99.99,,2013-04-25 17:53:00,
2013-04-25 14:01:00,63.0,28.0,30.22,NNW,330,7.0,-999.0,27,-99.99,,,-99.99,,2013-04-25 18:01:00,
2013-04-25 14:11:00,63.0,28.0,30.22,North,10,12.0,-999.0,27,-99.99,,,-99.99,,2013-04-25 18:11:00,
2013-04-25 14:22:00,64.0,28.0,30.21,East,90,3.0,-999.0,25,-99.99,,,-99.99,,2013-04-25 18:22:00,
2013-04-25 14:32:00,64.0,27.0,30.21,West,280,6.0,-999.0,23,-99.99,,,-99.99,,2013-04-25 18:32:00,
2013-04-25 14:42:00,63.0,27.0,30.21,West,280,8.0,-999.0,25,-99.99,,,-99.99,,2013-04-25 18:42:00,
2013-04-25 14:52:00,64.0,28.0,30.21,NNW,330,10.0,-999.0,25,-99.99,,,-99.99,,2013-04-25 18:52:00,
2013-04-25 15:02:00,64.0,28.0,30.21,NNW,330,10.0,-999.0,25,-99.99,,,-99.99,,2013-04-25 19:02:00,
2013-04-25 15:12:00,64.0,28.0,30.20,NNW,330,6.0,-999.0,25,-99.99,,,-99.99,,2013-04-25 19:12:00,
2013-04-25 15:21:00,64.0,27.0,30.20,NNW,330,2.0,-999.0,23,-99.99,,,-99.99,,2013-04-25 19:21:00,
2013-04-25 15:32:00,64.0,27.0,30.20,ENE,60,5.0,-999.0,23,-99.99,,,-99.99,,2013-04-25 19:32:00,
2013-04-25 15:42:00,64.0,27.0,30.20,South,170,7.0,-999.0,23,-99.99,,,-99.99,,2013-04-25 19:42:00,
2013-04-25 15:52:00,64.0,30.0,30.19,WNW,290,9.0,-999.0,27,-99.99,,,-99.99,,2013-04-25 19:52:00,
2013-04-25 16:02:00,64.0,30.0,30.19,WNW,290,9.0,-999.0,27,-99.99,,,-99.99,,2013-04-25 20:02:00,
2013-04-25 16:11:00,64.0,28.0,30.19,North,0,10.0,-999.0,25,-99.99,,,-99.99,,2013-04-25 20:11:00,
2013-04-25 16:22:00,64.0,36.0,30.20,West,270,9.0,-999.0,34,-99.99,,,-99.99,,2013-04-25 20:22:00,
2013-04-25 16:32:00,64.0,36.0,30.19,WSW,250,12.0,18.0,34,-99.99,,,-99.99,,2013-04-25 20:32:00,
2013-04-25 16:42:00,64.0,30.0,30.19,WSW,250,6.0,16.0,27,-99.99,,,-99.99,,2013-04-25 20:42:00,
2013-04-25 16:52:00,64.0,32.0,30.19,WSW,250,10.0,16.0,29,-99.99,,,-99.99,,2013-04-25 20:52:00,
2013-04-25 17:01:00,64.0,32.0,30.19,WSW,250,10.0,16.0,29,-99.99,,,-99.99,,2013-04-25 21:01:00,
2013-04-25 17:11:00,64.0,32.0,30.19,SW,220,14.0,17.0,29,-99.99,,,-99.99,,2013-04-25 21:11:00,
2013-04-25 17:22:00,64.0,30.0,30.20,West,270,7.0,-999.0,27,-99.99,,,-99.99,,2013-04-25 21:22:00,
2013-04-25 17:33:00,64.0,32.0,30.20,West,260,12.0,17.0,29,-99.99,,,-99.99,,2013-04-25 21:33:00,
2013-04-25 17:42:00,64.0,32.0,30.20,WSW,250,8.0,-999.0,29,-99.99,,,-99.99,,2013-04-25 21:42:00,
2013-04-25 17:52:00,63.0,32.0,30.19,West,270,12.0,-999.0,31,-99.99,,,-99.99,,2013-04-25 21:52:00,
2013-04-25 18:03:00,63.0,32.0,30.19,West,270,12.0,-999.0,31,-99.99,,,-99.99,,2013-04-25 22:03:00,
2013-04-25 18:12:00,63.0,32.0,30.20,West,270,10.0,-999.0,31,-99.99,,,-99.99,,2013-04-25 22:12:00,
2013-04-25 18:22:00,63.0,32.0,30.20,West,280,8.0,-999.0,31,-99.99,,,-99.99,,2013-04-25 22:22:00,
2013-04-25 18:33:00,63.0,32.0,30.21,West,260,12.0,-999.0,31,-99.99,,,-99.99,,2013-04-25 22:33:00,
2013-04-25 18:42:00,63.0,32.0,30.21,WSW,240,9.0,-999.0,31,-99.99,,,-99.99,,2013-04-25 22:42:00,
2013-04-25 18:52:00,61.0,30.0,30.21,WNW,290,7.0,-999.0,31,-99.99,,,-99.99,,2013-04-25 22:52:00,
2013-04-25 19:02:00,61.0,30.0,30.21,WNW,290,7.0,-999.0,31,-99.99,,,-99.99,,2013-04-25 23:02:00,
2013-04-25 19:12:00,59.0,28.0,30.22,West,260,9.0,-999.0,30,-99.99,,,-99.99,,2013-04-25 23:12:00,
2013-04-25 19:22:00,59.0,34.0,30.22,West,270,6.0,-999.0,38,-99.99,,,-99.99,,2013-04-25 23:22:00,
2013-04-25 19:32:00,57.0,32.0,30.22,West,260,7.0,-999.0,38,-99.99,,,-99.99,,2013-04-25 23:32:00,
2013-04-25 19:42:00,57.0,34.0,30.22,WSW,250,7.0,-999.0,41,-99.99,,,-99.99,,2013-04-25 23:42:00,
2013-04-25 19:52:00,55.0,34.0,30.23,West,260,5.0,-999.0,43,-99.99,,,-99.99,,2013-04-25 23:52:00,
2013-04-25 20:01:00,55.0,34.0,30.23,West,260,5.0,-999.0,43,-99.99,,,-99.99,,2013-04-26 00:01:00,
2013-04-25 20:11:00,55.0,34.0,30.23,West,260,5.0,-999.0,43,-99.99,,,-99.99,,2013-04-26 00:11:00,
2013-04-25 20:21:00,54.0,34.0,30.24,West,260,3.0,-999.0,46,-99.99,,,-99.99,,2013-04-26 00:21:00,
2013-04-25 20:32:00,54.0,34.0,30.24,WSW,250,3.0,-999.0,46,-99.99,,,-99.99,,2013-04-26 00:32:00,
2013-04-25 20:41:00,52.0,34.0,30.24,WSW,250,3.0,-999.0,50,-99.99,,,-99.99,,2013-04-26 00:41:00,
2013-04-25 20:51:00,50.0,34.0,30.25,WSW,250,3.0,-999.0,53,-99.99,,,-99.99,,2013-04-26 00:51:00,
2013-04-25 21:01:00,50.0,34.0,30.25,WSW,250,3.0,-999.0,53,-99.99,,,-99.99,,2013-04-26 01:01:00,
2013-04-25 21:11:00,48.0,34.0,30.26,West,260,2.0,-999.0,57,-99.99,,,-99.99,,2013-04-26 01:11:00,
2013-04-25 21:21:00,46.0,34.0,30.27,West,280,2.0,-999.0,61,-99.99,,,-99.99,,2013-04-26 01:21:00,
2013-04-25 21:32:00,46.0,34.0,30.27,WNW,300,2.0,-999.0,61,-99.99,,,-99.99,,2013-04-26 01:32:00,
2013-04-25 21:42:00,46.0,34.0,30.28,WNW,300,2.0,-999.0,61,-99.99,,,-99.99,,2013-04-26 01:42:00,
2013-04-25 21:52:00,45.0,34.0,30.28,WSW,250,6.0,-999.0,65,-99.99,,,-99.99,,2013-04-26 01:52:00,
2013-04-25 22:02:00,45.0,34.0,30.28,WSW,250,6.0,-999.0,65,-99.99,,,-99.99,,2013-04-26 02:02:00,
2013-04-25 22:11:00,48.0,37.0,30.29,WSW,250,5.0,-999.0,66,-99.99,,,-99.99,,2013-04-26 02:11:00,
2013-04-25 22:21:00,46.0,37.0,30.29,SSW,210,3.0,-999.0,70,-99.99,,,-99.99,,2013-04-26 02:21:00,
2013-04-25 22:32:00,45.0,36.0,30.29,SSW,200,3.0,-999.0,70,-99.99,,,-99.99,,2013-04-26 02:32:00,
2013-04-25 22:42:00,45.0,36.0,30.29,SW,220,3.0,-999.0,70,-99.99,,,-99.99,,2013-04-26 02:42:00,
2013-04-25 22:51:00,45.0,37.0,30.29,West,260,2.0,-999.0,75,-99.99,,,-99.99,,2013-04-26 02:51:00,
2013-04-25 23:01:00,45.0,37.0,30.29,West,260,2.0,-999.0,75,-99.99,,,-99.99,,2013-04-26 03:01:00,
2013-04-25 23:11:00,45.0,36.0,30.29,West,260,3.0,-999.0,70,-99.99,,,-99.99,,2013-04-26 03:11:00,
2013-04-25 23:21:00,43.0,36.0,30.29,West,260,2.0,-999.0,75,-99.99,,,-99.99,,2013-04-26 03:21:00,
2013-04-25 23:33:00,41.0,36.0,30.29,WSW,250,2.0,-999.0,80,-99.99,,,-99.99,,2013-04-26 03:33:00,
2013-04-25 23:43:00,41.0,36.0,30.29,West,260,1.0,-999.0,80,-99.99,,,-99.99,,2013-04-26 03:43:00,
2013-04-25 23:53:00,41.0,36.0,30.30,SW,220,1.0,-999.0,80,-99.99,,,-99.99,,2013-04-26 03:53:00,